TimeCST,TemperatureF,Dew PointF,Humidity,Sea Level PressureIn,VisibilityMPH,Wind Direction,Wind SpeedMPH,Gust SpeedMPH,PrecipitationIn,Events,Conditions,WindDirDegrees,DateUTC
12:58 AM,20.3,13.1,74,30.27,10.0,SSW,18.4,-,N/A,,Clear,200,2013-11-24 06:58:00
1:58 AM,20.1,14.2,78,30.21,10.0,SSW,13.8,-,N/A,,Clear,200,2013-11-24 07:58:00
2:58 AM,19.6,13.5,77,30.17,10.0,South,12.7,-,N/A,,Clear,180,2013-11-24 08:58:00
3:58 AM,20.5,14.0,76,30.12,10.0,South,9.2,-,N/A,,Clear,180,2013-11-24 09:58:00
4:58 AM,21.2,14.7,76,30.09,10.0,SSW,10.4,-,N/A,,Clear,200,2013-11-24 10:58:00
5:58 AM,21.9,15.1,75,30.02,10.0,South,12.7,-,N/A,,Clear,180,2013-11-24 11:58:00
6:58 AM,23.9,15.4,70,29.97,10.0,SW,12.7,-,N/A,,Clear,220,2013-11-24 12:58:00
7:58 AM,27.0,17.2,67,29.95,10.0,WSW,16.1,-,N/A,,Clear,240,2013-11-24 13:58:00
8:58 AM,29.1,18.9,66,29.96,10.0,WSW,9.2,-,N/A,,Clear,250,2013-11-24 14:58:00
9:58 AM,30.0,19.9,66,29.95,10.0,West,18.4,-,N/A,,Clear,270,2013-11-24 15:58:00
10:58 AM,32.4,22.3,66,29.94,10.0,WSW,8.1,-,N/A,,Clear,250,2013-11-24 16:58:00
11:58 AM,32.7,23.9,70,29.88,10.0,WSW,11.5,-,0.00,,Clear,240,2013-11-24 17:58:00
12:58 PM,34.0,25.9,72,29.86,10.0,WSW,13.8,-,0.00,,Partly Cloudy,250,2013-11-24 18:58:00
1:34 PM,35.6,26.6,70,29.80,10.0,WNW,17.3,-,N/A,,Clear,290,2013-11-24 19:34:00
1:58 PM,35.4,26.2,69,29.89,10.0,WNW,13.8,-,N/A,,Clear,300,2013-11-24 19:58:00
2:58 PM,36.0,26.4,68,29.88,10.0,West,11.5,-,N/A,,Clear,280,2013-11-24 20:58:00
3:58 PM,38.1,27.7,66,29.87,10.0,West,16.1,-,N/A,,Clear,270,2013-11-24 21:58:00
4:58 PM,38.1,28.0,67,29.90,10.0,WNW,16.1,-,N/A,,Clear,290,2013-11-24 22:58:00
5:58 PM,37.2,28.6,71,29.92,10.0,WNW,17.3,-,N/A,,Clear,290,2013-11-24 23:58:00
6:58 PM,33.4,28.2,81,29.91,10.0,West,12.7,-,N/A,,Clear,270,2013-11-25 00:58:00
7:58 PM,34.2,27.7,77,29.92,10.0,WNW,17.3,-,N/A,,Clear,290,2013-11-25 01:58:00
8:58 PM,36.0,28.8,75,29.92,10.0,WNW,23.0,29.9,N/A,,Clear,300,2013-11-25 02:58:00
9:58 PM,33.4,28.0,81,29.95,10.0,WNW,19.6,-,N/A,,Clear,300,2013-11-25 03:58:00
10:58 PM,32.0,26.6,80,29.96,10.0,WNW,18.4,25.3,N/A,,Clear,290,2013-11-25 04:58:00
11:58 PM,31.3,25.7,80,29.99,10.0,WNW,20.7,-,N/A,,Clear,300,2013-11-25 05:58:00